Flag for Brazil Weather past 2 weeks in Curitiba, Paraná, Brazil

Now
45 °F

Partly cloudy.


Feels Like: 40 °F
Forecast: 42 / 56 °F
Wind: 8 mph from Southeast

Location: Curitiba Aeroporto

Current Time: Jul 5, 2015 at 6:34:16 AM

Latest Report: Jul 5, 2015 at 6:00 AM


Visibility: N/A

Pressure: 30.21 "Hg (27.02 "Hg at 915m altitude)

Humidity: 93%

Dew point: 43 °F

Location of CuritibaLocation

Historic Weather in Curitiba — Graph

°F

Curitiba temperature yesterday

Maximum temperature yesterday: 61 °F (at 12:00 AM)
Minimum temperature yesterday: 41 °F (at 11:00 PM)
Average temperature yesterday: 54 °F

Past Weeks' High & Low Weather Summary

 TemperatureHumidityPressure
High77 °F (Jun 23, 1:00 PM)100% (Jun 21, 9:00 AM)30.57 "Hg (Jun 21, 9:00 AM)
Low41 °F (Jul 4, 11:00 PM)31% (Jun 22, 1:00 PM)29.92 "Hg (Jul 3, 2:00 PM)
Average56 °F84%30.28 "Hg
* Reported Jun 20 5:00 AM — Jul 5 5:00 AM, Curitiba, Weather by CustomWeather, © 2015

Note: Actual official high and low records may vary slightly from our data, if they occured in-between our weather recording intervals... More about our weather records

Advertising

Curitiba weather history for previous 24 hours

 ConditionsComfort  
Time TempWeatherWind HumidityBarometerVisibility
5:00 AM
Sun, Jul 5
43 °FPassing clouds.7 mph93%30.21 "HgN/A
4:00 AM43 °FPassing clouds.5 mph87%30.24 "HgN/A
3:00 AM41 °FPassing clouds.2 mph93%30.24 "HgN/A
2:00 AM41 °FPassing clouds.6 mph87%30.24 "HgN/A
1:00 AM43 °FPassing clouds.6 mph81%30.24 "HgN/A
12:00 AM41 °FPassing clouds.5 mph87%30.24 "HgN/A
11:00 PM
Sat, Jul 4
41 °FPassing clouds.5 mph81%30.24 "HgN/A
10:00 PM45 °FPassing clouds.5 mph71%30.21 "HgN/A
9:00 PM45 °FPassing clouds.6 mph66%30.21 "HgN/A
8:00 PM45 °FClear.6 mph76%30.21 "Hg10 mi
7:00 PM52 °FClear.3 mph50%30.15 "Hg10 mi
6:00 PM52 °FClear.5 mph47%30.15 "Hg10 mi
5:00 PM54 °FClear.3 mph51%30.12 "Hg10 mi
4:00 PM55 °FSunny.6 mph44%30.12 "Hg10 mi
3:00 PM55 °FSunny.8 mph41%30.09 "Hg10 mi
2:00 PM55 °FPassing clouds.12 mph41%30.09 "HgN/A
1:00 PM55 °FPassing clouds.9 mph51%30.12 "HgN/A
12:00 PM55 °FPassing clouds.13 mph63%30.12 "HgN/A
11:00 AM55 °FPassing clouds.13 mph63%30.12 "HgN/A
10:00 AM55 °FScattered clouds.12 mph72%30.09 "HgN/A
9:00 AM54 °FBroken clouds.13 mph77%30.09 "HgN/A
8:00 AM54 °FPartly sunny.10 mph82%30.07 "HgN/A
7:00 AM54 °FBroken clouds.9 mph88%30.04 "HgN/A
6:00 AM54 °FPassing clouds.12 mph94%30.01 "HgN/A
Weather by CustomWeather, © 2015

See weather overviewHow to use our weather pages